FW1483 Weather Reports


time (UTC)temp
C
wind
direction
speed
KPH
gust
KPH
rain 1hr
cm
rain 24hr
cm
rain mn
cm
humidity
%
barometer
mb
20260504044538 7 312 0.0 0.0 0.00 0.00 0.00 64 1018.6
20260504043044 7 312 0.0 0.0 0.00 0.00 0.00 63 1018.3
20260504041536 7 312 0.0 0.0 0.00 0.00 0.00 64 1018.3
20260504040029 7 312 0.0 3.2 0.00 0.00 0.00 64 1018.4
20260504034528 7 313 0.0 0.0 0.00 0.00 0.00 63 1018.5
20260504033030 7 301 0.0 0.0 0.00 0.00 0.00 62 1018.3
20260504031527 7 325 0.0 0.0 0.00 0.00 0.00 62 1018.4
20260504030027 7 325 0.0 0.0 0.00 0.00 0.00 63 1018.4
20260504024526 7 325 0.0 0.0 0.00 0.00 0.00 63 1018.6
20260504023027 7 325 0.0 3.2 0.00 0.00 0.00 65 1018.5
20260504021525 7 325 0.0 3.2 0.00 0.00 0.00 65 1018.5
20260504020027 7 325 0.0 0.0 0.00 0.00 0.00 66 1018.3
20260504014533 7 325 0.0 0.0 0.00 0.00 0.00 68 1018.1
20260504013024 7 325 0.0 0.0 0.00 0.00 0.00 66 1017.6
20260504011524 7 331 0.0 3.2 0.00 0.00 0.00 66 1017.7
20260504010022 8 294 0.0 0.0 0.00 0.00 0.00 65 1017.5
20260504004522 8 294 0.0 3.2 0.00 0.00 0.00 61 1017.5
20260504003028 10 279 0.0 3.2 0.00 0.00 0.00 60 1017.4
20260504001521 11 279 0.0 0.0 0.00 0.00 0.00 60 1017.4
20260504000021 12 258 0.0 3.2 0.00 0.00 0.00 55 1017.4
20260503234520 13 314 0.0 0.0 0.00 0.00 0.00 48 1017.4
20260503233019 14 313 0.0 3.2 0.00 0.00 0.00 43 1017.4
20260503231523 15 309 0.0 6.4 0.00 0.00 0.00 37 1017.4
20260503230019 16 317 1.6 4.8 0.00 0.00 0.00 33 1017.3
20260503224518 16 212 0.0 4.8 0.00 0.00 0.00 33 1017.3
20260503223020 17 119 3.2 8.0 0.00 0.00 0.00 33 1017.4
20260503221519 17 55 3.2 14.5 0.00 0.00 0.00 31 1017.6
20260503220022 17 153 3.2 12.9 0.00 0.00 0.00 32 1017.7
20260503214521 17 199 3.2 12.9 0.00 0.00 0.00 34 1017.8
20260503213015 17 266 3.2 12.9 0.00 0.00 0.00 32 1017.8
20260503211514 17 321 1.6 16.1 0.00 0.00 0.00 34 1017.8
20260503210012 16 81 3.2 12.9 0.00 0.00 0.00 32 1017.8
20260503204518 17 211 4.8 16.1 0.00 0.00 0.00 32 1017.9
20260503203010 17 116 3.2 20.9 0.00 0.00 0.00 34 1018.1
20260503201511 17 194 3.2 14.5 0.00 0.00 0.00 34 1018.3
20260503200008 16 59 3.2 14.5 0.00 0.00 0.00 34 1018.5
20260503194507 16 198 1.6 17.7 0.00 0.00 0.00 39 1018.6
20260503193006 16 186 3.2 14.5 0.00 0.00 0.00 33 1018.8
20260503191522 16 232 6.4 16.1 0.00 0.00 0.00 34 1019.2
20260503190005 16 167 1.6 12.9 0.00 0.00 0.00 34 1019.1
20260503184501 16 245 3.2 17.7 0.00 0.00 0.00 36 1019.4
20260503183100 15 133 6.4 11.3 0.00 0.00 0.00 35 1019.5
20260503183000 15 217 4.8 9.7 0.00 0.00 0.00 35 1019.5
20260503181603 15 79 3.2 16.1 0.00 0.00 0.00 39 1019.8
20260503180111 14 157 3.2 9.7 0.00 0.00 0.00 36 1019.9
20260503174555 14 207 6.4 19.3 0.00 0.00 0.00 38 1019.9
20260503173102 13 124 4.8 11.3 0.00 0.00 0.00 38 1020.2
20260503171550 13 24 4.8 14.5 0.00 0.00 0.00 43 1020.6
20260503081555 4 317 0.0 4.8 0.00 0.00 0.00 73 1018.5
20260503071552 3 285 0.0 0.0 0.00 0.00 0.00 79 1017.9